Location: Moscow
(30.9132°N, 94.8252°W)
Time: 05:15:43
(UTC+00:00)

YAOGAN 1 - Pass Details

Date: 15 November 2025
Orbit: 605 x 607 km, 97.8° (Epoch: 04 December)

Event Time Altitude Azimuth Distance (km) Brightness Sun altitude
Rises 01:24:29 0° 184° (S) 2,848 6.1 -26.3°
Reaches altitude 10° 01:26:46 10° 192° (SSW) 1,948 5.3 -26.8°
Maximum altitude 01:30:42 38° 261° (W) 929 3.9 -27.6°
Drops below altitude 10° 01:34:41 10° 330° (NNW) 1,959 5.4 -28.5°
Sets 01:36:59 0° 339° (NNW) 2,866 6.2 -29.0°
